{"data":{"norad_id":67549,"intl_designator":"2026-014T","name":"STARLINK-36564","alt_names":[],"object_type":"PAYLOAD","status":"ACTIVE","operator":null,"country":"US","launch_date":"2026-01-22","launch_site_code":"AFWTR","launch_vehicle":null,"mission":null,"orbit_class":"UNKNOWN","rcs_meters":null,"size_class":null,"mass_kg":null,"dimensions":null,"purposes":["comms"],"wikipedia_slug":null,"has_3d_model":false,"image_url":null,"decayed_at":null,"tle_current":{"epoch":"2026-05-25T02:48:06.353280Z","epoch_age_seconds":68981,"freshness":"FRESH","line1":"1 67549U 26014T   26145.11674020  .00019250  00000+0  59688-3 0  9998","line2":"2 67549  97.2866  32.1258 0001609  91.9686 268.1741 15.33454610 20437","mean_motion":15.3345461,"eccentricity":0.0001609,"inclination_deg":97.2866,"raan_deg":32.1258,"arg_perigee_deg":91.9686,"mean_anomaly_deg":268.1741,"bstar":0.00059688,"rev_number":2043,"period_min":93.905616156451,"perigee_km":464.41343848911,"apogee_km":466.61572556821,"semimajor_km":6843.6515820287,"source":"CELESTRAK","updated_at":"2026-05-25T13:38:21.610486Z"}}}